Tracking 34747 objects as of 16-Jul-2026
HD Live streaming from Space Station
objects crossing your sky now

ARIANE 44LP DEB

Track ARIANE 44LP DEB now!


NORAD ID: 33544
Int'l Code: 1988-109T
Perigee: 364.0 km
Apogee: 34,275.6 km
Inclination: 7.1 °
Period: 604.8 minutes
Semi major axis: 23690 km
RCS: 0.2316 m2 (medium)
Launch date: December 11, 1988
Source: France (FR)
Launch site: FRENCH GUIANA (FRGUI)

Note: This is SATELLITE DEBRIS
Your satellite tracking list
Your tracking list is empty




NASA's NSSDC Master Catalog

Two Line Element Set (TLE):
1 33544U 88109T   26196.87121199  .00000853  00000-0  14590-2 0  9994
2 33544   7.1236  32.6363 7157114  98.2208 341.2675  2.38085199204153
Source of the keplerian elements: AFSPC